SB KEPS @ AMSAT $ORB08115.N 2Line Orbital Elements 08115.AMSAT
HR AMSAT ORBITAL ELEMENTS FOR AMATEUR SATELLITES IN NASA FORMAT FROM WA5QGD FORT WORTH,TX April 24, 2008 Send Subscribe/unsubscribe to KEPS at http://www.amsat.org/mailman/listinfo/keps BID: ORB08115.N
DECODE 2-LINE ELSETS WITH THE FOLLOWING KEY: 1 AAAAAU 00 0 0 BBBBB.BBBBBBBB .CCCCCCCC 00000-0 00000-0 0 DDDZ 2 AAAAA EEE.EEEE FFF.FFFF GGGGGGG HHH.HHHH III.IIII JJ.JJJJJJJJKKKKKZ KEY: A-CATALOGNUM B-EPOCHTIME C-DECAY D-ELSETNUM E-INCLINATION F-RAAN G-ECCENTRICITY H-ARGPERIGEE I-MNANOM J-MNMOTION K-ORBITNUM Z-CHECKSUM
TO ALL RADIO AMATEURS BT
AO-07 1 07530U 74089B 08115.58385405 -.00000027 00000-0 10000-3 0 1598 2 07530 101.4703 148.8650 0011855 008.1939 351.9329 12.53573857530269 AO-10 1 14129U 83058B 08113.39480003 -.00000051 00000-0 10000-3 0 04986 2 14129 025.9251 219.0918 6003731 117.5251 314.8092 02.05870795186954 UO-11 1 14781U 84021B 08114.54478765 .00000267 00000-0 42908-4 0 6513 2 14781 098.1579 147.7489 0008087 245.6245 114.4115 14.79636871295772 RS-15 1 23439U 94085A 08114.82310690 -.00000039 00000-0 10000-3 0 01382 2 23439 064.8157 222.9549 0149174 133.2248 228.1243 11.27552013548833 FO-29 1 24278U 96046B 08115.80201913 -.00000008 00000-0 29406-4 0 7551 2 24278 098.5880 039.0696 0351008 353.8943 005.7973 13.52937397577175 SO-33 1 25509U 98061B 08115.57722574 .00000024 00000-0 -92036-5 0 1825 2 25509 031.4337 259.4752 0355477 278.4130 077.6327 14.28211524495947 AO-40 1 26609U 00072B 08113.87392119 -.00000165 00000-0 10000-3 0 00465 2 26609 007.5780 086.5395 7915793 074.0362 353.2976 01.25583993034345 VO-52 1 28650U 05017B 08114.69713534 .00000395 00000-0 56900-4 0 09133 2 28650 097.7919 182.7938 0026290 320.4084 039.5212 14.81453278160533 PO-63 1 29712U 07001D 08115.61589571 .00000671 00000-0 95127-4 0 3879 2 29712 097.8784 174.8004 0013880 190.7955 169.2974 14.80117073 69540 AO-16 1 20439U 90005D 08114.56221917 -.00000005 00000-0 13372-4 0 03056 2 20439 098.2263 097.4277 0011010 345.1825 014.9040 14.31790984953109 LO-19 1 20442U 90005G 08114.47884873 .00000086 00000-0 47259-4 0 2302 2 20442 098.1983 106.0477 0011623 342.9407 017.1389 14.32030001953245 AO-27 1 22825U 93061C 08114.66491738 -.00000036 00000-0 22933-5 0 09530 2 22825 098.3797 076.7450 0009296 065.1911 295.0246 14.29236455759989 IO-26 1 22826U 93061D 08114.65843860 -.00000014 00000-0 10860-4 0 06579 2 22826 098.3726 077.6735 0009872 061.0317 299.1852 14.29484842760078 PO-28 1 22829U 93061G 08114.46177540 -.00000027 00000-0 56397-5 0 9276 2 22829 098.3602 078.5987 0010477 035.6699 324.5178 14.30186668760303 GO-32 1 25397U 98043D 08115.60684237 -.00000111 00000-0 -31128-4 0 5823 2 25397 098.3686 153.4034 0001891 064.0857 296.0511 14.23141600508590 MO-46 1 26548U 00057D 08114.62227420 -.00000080 00000-0 83555-5 0 00807 2 26548 064.5565 299.1149 0023524 331.9058 028.0773 14.83251442409721 NO-44 1 26931U 01043C 08114.85349754 .00000131 00000-0 83357-4 0 08622 2 26931 067.0528 064.6243 0005986 278.6409 081.4006 14.29520988342646 SO-50 1 27607U 02058C 08114.69991080 -.00000003 00000-0 21725-4 0 5859 2 27607 064.5594 219.1133 0083871 290.1006 069.1079 14.71347486286959 CO-55 1 27844U 03031E 08114.56902835 .00000113 00000-0 72917-4 0 02891 2 27844 098.7167 123.5927 0009023 276.4588 083.5578 14.20574823249689 CO-57 1 27848U 03031J 08114.55977377 .00000045 00000-0 41524-4 0 02419 2 27848 098.7177 122.6907 0009064 280.5976 079.4197 14.20384034249655 AO-51 1 28375U 04025K 08114.59529631 .00000014 00000-0 17059-4 0 00846 2 28375 098.0763 142.2252 0084199 319.2524 040.2390 14.40604489200544 CO-56 1 28941U 06005C 08115.42729535 .00035921 28733-5 28583-3 0 9950 2 28941 098.1037 218.9086 0175475 235.8872 122.5644 15.53895215121688 CP4 1 31122U 07012F 08115.73308505 .00000552 00000-0 13192-3 0 3215 2 31122 098.0458 183.3002 0086691 134.5428 226.2833 14.55115737 54306 CP3 1 31128U 07012M 08115.72036305 -.00000046 00000-0 00000 0 0 3147 2 31128 098.0400 181.4094 0103852 139.8000 221.0970 14.51937465 54178 LIBERT 1 31129U 07012N 08115.62889608 .00000340 00000-0 89029-4 0 9155 2 31129 098.0427 181.3607 0103297 139.9984 220.8856 14.52028250 54143 NOAA-10 1 16969U 86073A 08114.61745270 -.00000150 00000-0 -42855-4 0 965 2 16969 098.7254 136.6882 0012075 344.6664 015.4158 14.27356485123656 NOAA-11 1 19531U 88089A 08114.71523827 .00000129 00000-0 89276-4 0 1395 2 19531 098.7959 204.8009 0011143 220.2339 139.8010 14.14870731 10203 NOAA-12 1 21263U 91032A 08114.66509751 .00000110 00000-0 65650-4 0 6469 2 21263 098.7662 116.6230 0011423 285.1479 074.8425 14.25528388880620 MET-3/5 1 21655U 91056A 08115.78675368 .00000051 00000-0 10000-3 0 4226 2 21655 082.5548 142.1119 0013894 141.4381 218.7736 13.17015289802550 MET-2/21 1 22782U 93055A 08115.55207268 .00000011 00000-0 -33094-5 0 1240 2 22782 082.5474 154.1268 0024260 081.2992 279.0924 13.83626736739710 OKEAN-4 1 23317U 94066A 08114.72720832 .00000153 00000-0 15972-4 0 05696 2 23317 082.5419 005.8879 0021085 310.4023 049.5361 14.82602752730211 NOAA-14 1 23455U 94089A 08115.61836752 .00000101 00000-0 77170-4 0 1206 2 23455 098.9480 187.8231 0008582 298.1180 061.9146 14.13739420686787 SICH-1 1 23657U 95046A 08114.71279545 .00000112 00000-0 11222-4 0 03665 2 23657 082.5263 146.8777 0022412 301.9311 057.9737 14.81570490682159 NOAA-15 1 25338U 98030A 08114.71849509 .00000184 00000-0 97568-4 0 4412 2 25338 098.5526 107.9676 0010185 195.6034 164.4831 14.24697319517047 RESURS 1 25394U 98043A 08115.71364622 .00000004 00000-0 19538-4 0 9100 2 25394 098.3894 162.0950 0001925 026.9696 333.1583 14.24157308508839 FENGYUN1 1 25730U 99025A 08114.96727220 -.00000431 00000-0 -22911-3 0 04297 2 25730 098.7227 092.5924 0021613 329.7156 030.2761 14.07716242461331 OKEAN-0 1 25860U 99039A 08114.58807157 .00000062 00000-0 16696-4 0 03495 2 25860 097.7484 107.5592 0001880 075.1902 284.9510 14.73516409471351 NOAA-16 1 26536U 00055A 08114.66308805 .00000269 00000-0 17056-3 0 9081 2 26536 099.1546 102.6517 0010919 023.5507 336.6166 14.12477867391070 NOAA-17 1 27453U 02032A 08115.57998294 .00000152 00000-0 84968-4 0 9038 2 27453 098.5377 181.7493 0010799 262.8760 097.1214 14.23967792303170 NOAA-18 1 28654U 05018A 08114.81211887 .00000369 00000-0 22885-3 0 4046 2 28654 098.8660 056.4204 0015175 106.2912 253.9916 14.11157991150803 HUBBLE 1 20580U 90037B 08114.93116705 .00000377 00000-0 16321-4 0 01323 2 20580 028.4696 317.0950 0003862 168.0558 192.0121 15.00368809786826 UARS 1 21701U 91063B 08114.91596673 .00007015 00000-0 10587-3 0 03508 2 21701 056.9739 038.1394 0091020 077.5504 283.5722 15.51421396914077 PO-34 1 25520U 98064B 08114.53346287 .00000467 00000-0 13229-4 0 09867 2 25520 028.4593 184.6697 0005066 052.8191 307.2870 15.17177782524858 ISS 1 25544U 98067A 08115.99207051 .00020934 00000-0 12824-3 0 3675 2 25544 051.6419 290.5040 0004061 073.8913 068.7829 15.77272207540133 OO-38 1 26063U 00004C 08114.72906359 -.00000032 00000-0 92479-5 0 01956 2 26063 100.1951 179.4939 0036838 003.6061 356.5375 14.35832792431750 UWE-1 1 28892U 05043C 08115.27111561 .00000145 00000-0 40060-4 0 300 2 28892 098.1020 010.1857 0016554 215.1915 144.8192 14.59619022132732 CO-58 1 28895U 05043F 08115.44617432 .00000027 00000-0 15388-4 0 45 2 28895 098.1053 010.6923 0017282 214.2248 145.7819 14.59659587132644 NCUBE2 1 28897U 05043H 08114.66300064 .00000110 00000-0 32535-4 0 05366 2 28897 098.1022 009.8616 0016372 219.5675 140.4327 14.59828818124813 FCAL 1 29667U 06055J 08115.58455823 .00219345 37005-4 15719-3 0 9103 2 29667 051.6260 235.4624 0000776 029.3096 330.8045 16.15462234 77918 FALCON 1 30776U 07006E 08114.43887708 .00000433 00000-0 34619-4 0 03042 2 30776 035.4327 125.5220 0001592 284.3866 075.6674 15.02958654061906 MAST 1 31126U 07012K 08114.71709862 .00000082 00000-0 28934-4 0 3092 2 31126 098.0417 181.3180 0095550 140.3865 220.4391 14.53417165 54105 CAPE1 1 31130U 07012P 08114.68204342 .00000103 00000-0 34498-4 0 02967 2 31130 098.0418 180.4183 0103483 142.9609 217.8782 14.51954252053815 /EX
participants (1)
-
Ray Hoad